Showing default

TIANQI 37, 67476

Orbit data source: Space-Track

TIANQI 37, 67476 is a payload satellite owned by Guodian Gaokeji (CN) in LEO that was launched on Thu, 15 Jan 2026 UTC via a GUSHENXING 1 launch vehicle from the Yellow Sea Launch Area, China (YSLA). Payload-class satellites include a variety of spacecraft equipped with specific instruments for various scientific and technological missions. These include communications satellites like Starlink; space stations such as the ISS; scientific satellites like the Hubble; Earth observation satellites from companies like Planet Labs, Umbra, and HawkEye 360; GPS; miniature CubeSats for education and research; and military/defense satellites.

Loading next visibility...
Identifier
67476, 2026-010A
Orbit
LEO
Country
Flag of CNCN / PRC
Related business
Manufacturer
Shanghai ASES
Mission
Operational Commercial Communications
Bus & Motor
STARLIGHTB, Unknown motor
Mass
40 kg wet, ~40 kg dry
Launch date (UTC)
2026-01-15 (5 months ago)
Launch vehicle
GUSHENXING 1
Launch site
Yellow Sea Launch Area, China (YSLA)
Object type
Payload
Rocket body
Debris
Shape & HBR
Box, 0.6 m
Radar Cross Section
0.195 m², Medium (>0.1 m² and < 1m²)

Expand to show TLE details & history
Last TLE update: 20 hours ago

TLE from 20 hours ago
0 TIANQI 37
1 67476U 26010A   26171.03233703  .00000016  00000-0  98805-4 0  9998
2 67476  44.9829  69.0781 0012552 339.1275  20.9044 13.99164893 21795
Epoch: 2026-06-20T00:46Z
TLE epoch observation values (Epoch: 2026-06-20T00:46:33.919Z)
Latitude
-0.00001°
Longitude
149.18398°
Altitude
888.158 km
Speed
7.414 km/s
True Right ascension
04h 36m 18s
True Declination
0° 00' 00"
Sunlit
Object was in daylight at epoch
Visualization orbit readout
Latitude
Unknown
Longitude
Unknown
Altitude
Unknown
Speed
Unknown
Apparent Right ascension
Unknown
Apparent Declination
Unknown
Sunlit
N/A
Visualization observer readout
Local Sidereal Time
07:20:54
Azimuth
Unknown
Elevation
Unknown
Doppler factor
Unknown
Orbital elements
Apogee altitude
907.343 km
Perigee altitude
889.076 km
Semi-major axis
7,276.346 km
Eccentricity
0.00126
Inclination
44.9829°
RAAN
69.0781°
Arg. of periapsis
339.1275°
True anomaly
20.9558°
Mean anomaly
20.9044°
Eccentric anomaly
20.93009°
Mean motion
3.49682 °/min
Orbital period
102.95 mins
BSTAR
0.000098805
Loading maneuver chart data...
Computing Atmospheric mass density...
Loading historical data...
Loading historical data...
Loading historical data...
Loading historical data...
Loading historical data...
Loading historical data...
Loading historical data...
Other satellites on launch #10 in the year 2026 (2026-01-15 UTC)

Documentation

Showing up to 5 results
|